#timestamp,LO_Frequency,Hit,StdDev 
1652994015.5,286047002.3,N
1652994035.3,286047000.2,N
1652994055.1,286047000.0,N
1652994075.9,286047000.4,N
1652994095.7,286046999.9,N
1652994115.5,286047000.0,N
1652994135.4,286047002.4,N
1652994155.2,286047002.8,N
1652994175.1,286047000.9,N
1652994176.0,286047000.9,N
1652994195.8,286046998.2,N
1652994215.6,286046998.3,N
1652994235.5,286046999.8,N
1652994255.3,286046999.8,N
1652994275.2,286047002.4,N
1652994295.9,286047002.6,N
1652994315.7,286047002.2,N
1652994335.6,286046999.9,N
1652994355.4,286046999.8,N
1652994375.2,286047000.2,N
1652994395.1,286046999.9,N
1652994396.0,286046999.9,N
1652994415.8,286047000.6,N
1652994435.7,286047002.7,N
1652994455.5,286047000.7,N
1652994475.3,286047000.6,N
1652994495.2,286047000.5,N
1652994515.0,286047000.5,N
1652994515.9,286047000.5,N
1652994535.8,286046998.4,N
1652994555.6,286046999.5,N
1652994575.4,286046996.5,N
1652994595.3,286046997.0,N
1652994615.1,286046999.0,N
1652994635.8,286046996.8,N
1652994655.7,286046997.5,N
1652994675.5,286046996.5,N
1652994695.4,286046997.3,N
1652994715.2,286046997.0,N
1652994735.0,286046997.9,N
1652994735.9,286046997.9,N
1652994755.8,286046995.0,N
1652994775.6,286046995.0,N
1652994795.4,286046997.5,N
1652994815.3,286046997.7,N
1652994835.1,286046995.3,N
1652994855.9,286046997.3,N
1652994875.7,286046995.2,N
1652994895.5,286046997.8,N
1652994915.4,286046998.0,N
1652994935.2,286046994.9,N
1652994955.1,286046997.4,N
1652994956.0,286046997.4,N
1652994975.8,286046998.0,N
1652994995.6,286046997.3,N
1652995015.5,286046998.0,N
1652995035.3,286046997.8,N
1652995055.1,286046997.9,N
1652995075.9,286046998.0,N
1652995095.7,286046997.6,N
1652995115.6,286046997.0,N
1652995135.4,286046994.9,Y
1652995155.2,286046998.7,P
1652995175.1,286046998.3,N
1652995176.0,286046998.3,N
1652995195.8,286046999.1,N
1652995215.6,286046998.2,N
1652995235.5,286046999.9,N
1652995255.3,286047000.4,N
1652995275.2,286046998.1,N
1652995295.9,286046998.5,N
1652995315.7,286046999.0,N
1652995335.6,286046998.2,N
1652995355.4,286046998.2,N
1652995375.2,286046999.2,N
1652995395.1,286046998.4,N
1652995396.0,286046998.4,N
1652995415.8,286046997.1,Y
1652995435.7,286046999.3,P
1652995455.5,286046998.1,P
1652995475.3,286046998.7,N
1652995495.2,286046999.0,N
1652995515.0,286046998.5,Y
1652995515.9,286046998.5,P
1652995535.8,286047000.4,P
1652995555.6,286047000.3,N
1652995575.4,286047000.2,N
1652995595.3,286047002.3,N
1652995615.1,286047002.0,N
1652995635.8,286047001.5,N
1652995655.7,286047002.1,N
1652995675.5,286047000.2,N
1652995695.4,286047002.8,N
1652995715.2,286047001.7,N
1652995735.0,286047002.1,N
1652995735.9,286047002.1,N
1652995755.8,286047001.8,N
1652995775.6,286047002.0,N
1652995795.5,286047000.4,N
1652995815.3,286047000.3,N
1652995835.1,286047000.7,N
1652995855.9,286046998.2,N
1652995875.7,286047000.8,N
1652995895.5,286046999.3,N
1652995915.4,286046999.1,N
1652995935.2,286046998.8,N
1652995955.1,286046999.0,N
1652995956.0,286046999.0,N
1652995975.8,286046998.9,N
1652995995.6,286046999.1,N
1652996015.5,286046998.9,N
1652996035.3,286046997.0,N
1652996055.1,286046999.5,N
1652996075.9,286046998.4,N
1652996095.7,286047001.1,N
1652996115.6,286047000.1,N
1652996135.4,286047002.8,N
1652996155.2,286046999.9,N
1652996175.1,286046999.7,N
1652996176.0,286046999.7,N
1652996195.8,286047002.7,N
1652996215.7,286047002.5,N
1652996235.5,286047002.0,N
1652996255.3,286047001.6,N
1652996275.2,286047002.2,N
1652996295.0,286047001.8,N
1652996295.9,286047001.8,N
1652996315.7,286047002.3,N
1652996335.6,286047002.8,N
1652996355.4,286047002.2,N
1652996375.3,286047001.3,N
1652996395.1,286047004.2,N
1652996396.0,286047004.2,N
1652996415.8,286047004.3,N
1652996435.7,286047004.4,N
1652996455.5,286047001.5,N
1652996475.3,286047003.6,N
1652996495.2,286047005.8,N
1652996515.0,286047003.0,N
1652996515.9,286047003.0,N
1652996535.8,286047002.9,N
1652996555.6,286047003.0,N
1652996575.4,286047005.8,Y
1652996595.3,286047004.0,P
1652996615.1,286047001.4,N
1652996635.9,286047001.6,N
1652996655.7,286047002.0,N
1652996675.5,286047000.3,N
1652996695.4,286047000.1,N
1652996715.2,286047002.6,N
1652996735.0,286047002.0,N
1652996736.0,286047002.0,N
1652996755.8,286047001.9,N
1652996775.6,286047002.3,N
1652996795.5,286047002.0,N
1652996815.3,286047002.5,N
1652996835.1,286047002.0,N
1652996855.9,286047004.4,Y
1652996875.7,286047000.4,P
1652996895.6,286047001.1,N
1652996915.4,286046998.2,N
1652996935.2,286046998.1,N
1652996955.1,286046998.1,N
1652996956.0,286046998.1,N
1652996975.8,286046998.6,N
1652996995.6,286047000.9,N
1652997015.5,286047000.5,N
1652997035.3,286047002.8,N
1652997055.2,286047002.0,N
1652997075.0,286047000.0,N
1652997075.9,286047000.0,N
1652997095.7,286047000.5,N
1652997115.6,286047000.4,N
1652997135.4,286047000.7,N
1652997155.3,286047000.8,N
1652997175.1,286047000.9,N
1652997176.0,286047000.9,N
1652997195.8,286046998.1,N
1652997215.7,286047001.1,N
1652997235.5,286046998.7,N
1652997255.4,286046998.8,N
1652997275.2,286046998.5,N
1652997295.0,286046998.3,N
1652997295.9,286046998.3,N
1652997315.8,286046998.3,N
1652997335.6,286047001.1,N
1652997355.4,286047000.7,N
1652997375.3,286047000.9,N
1652997395.1,286047000.5,N
1652997415.9,286047001.0,N
1652997435.7,286047000.6,N
1652997455.5,286046998.1,N
1652997475.2,286047001.2,N
1652997495.1,286047000.7,N
1652997496.0,286047000.7,N
1652997515.8,286047000.5,N
1652997535.7,286047000.0,N
1652997555.5,286047000.6,N
1652997575.3,286047000.0,N
1652997595.2,286047000.5,N
